Flag for Mexico Weather past 2 weeks in Matamoros, Tamaulipas, Mexico

Now
72 °F

Passing clouds.


Feels Like: 68 °F
Forecast: 76 / 91 °F
Wind: No wind

Location: Brownsville / South Padre Island International Airport

Current Time: Jul 2, 2015 at 5:42:07 AM

Latest Report: Jul 2, 2015 at 4:53 AM


Visibility: 10 mi

Pressure: 29.95 "Hg

Humidity: 93%

Dew point: 70 °F

Location of MatamorosLocation

Historic Weather in Matamoros — Graph

°F

Matamoros temperature yesterday

Maximum temperature yesterday: 83 °F (at 2:53 PM)
Minimum temperature yesterday: 72 °F (at 10:53 AM)
Average temperature yesterday: 77 °F

Past Weeks' High & Low Weather Summary

 TemperatureHumidityPressure
High94 °F (Jun 26, 2:53 PM)97% (Jul 1, 7:53 AM)30.12 "Hg (Jul 1, 7:53 AM)
Low72 °F (Jul 1, 10:53 AM)48% (Jun 26, 3:53 PM)29.84 "Hg (Jun 17, 5:53 PM)
Average83 °F77%29.99 "Hg
* Reported Jun 17 5:53 AM — Jul 2 3:53 AM, Matamoros, Weather by CustomWeather, © 2015

Note: Actual official high and low records may vary slightly from our data, if they occured in-between our weather recording intervals... More about our weather records

Advertising

Matamoros weather history for previous 24 hours

 ConditionsComfort  
Time TempWeatherWind HumidityBarometerVisibility
3:53 AM
Thu, Jul 2
73 °FClear.5 mph90%29.96 "Hg10 mi
2:53 AM72 °FClear.5 mph91%29.98 "Hg10 mi
1:53 AM73 °FClear.No wind84%30.00 "Hg10 mi
12:53 AM73 °FClear.5 mph84%30.02 "Hg10 mi
11:53 PM
Wed, Jul 1
73 °FClear.5 mph84%30.03 "Hg10 mi
10:53 PM74 °FClear.8 mph85%30.02 "Hg10 mi
9:53 PM74 °FClear.8 mph82%30.00 "Hg10 mi
8:53 PM75 °FSunny.5 mph79%30.00 "Hg10 mi
7:53 PM79 °FSunny.5 mph67%30.00 "Hg10 mi
6:53 PM80 °FSunny.6 mph67%29.99 "Hg10 mi
5:53 PM80 °FSunny.10 mph69%29.99 "Hg10 mi
4:53 PM80 °FSunny.12 mph71%30.00 "Hg10 mi
3:53 PM82 °FPassing clouds.14 mph63%30.00 "Hg10 mi
2:53 PM83 °FSunny.14 mph63%30.02 "Hg10 mi
1:53 PM81 °FPassing clouds.22 mph74%30.00 "Hg10 mi
12:53 PM78 °FSunny.15 mph79%30.02 "Hg10 mi
11:53 AM75 °FLight rain. Broken clouds.15 mph90%30.04 "Hg9 mi
10:53 AM72 °FRain. Partly sunny.24 mph84%30.03 "Hg5 mi
9:53 AM74 °FRain. Fog.21 mph97%30.04 "Hg4 mi
8:53 AM73 °FRain. Fog.13 mph97%30.04 "Hg5 mi
7:53 AM73 °FThunderstorms. Fog.17 mph97%30.02 "Hg6 mi
7:01 AM74 °FHeavy rain. Fog.8 mph94%29.97 "Hg1 mi
5:53 AM79 °FPassing clouds.No wind88%29.96 "Hg10 mi
Weather by CustomWeather, © 2015

See weather overviewHow to use our weather pages